KZ1X Weather Reports


Display with metric or nautical units.
time (UTC)temp
F
wind
direction
speed
MPH
gust
MPH
rain 1hr
in
rain 24hr
in
rain mn
in
humidity
%
barometer
mb
20260509134550 62 0 0.0 2.0 0.00 0.00 0.00 86 1013.9
20260509133042 61 0 0.0 3.0 0.00 0.00 0.00 87 1014.3
20260509131558 59 0 0.0 1.0 0.00 0.00 0.00 92 1014.0
20260509130049 57 0 0.0 1.0 0.00 0.00 0.00 95 1014.4
20260509124543 56 0 0.0 1.0 0.00 0.00 0.00 97 1014.0
20260509123047 55 0 0.0 1.0 0.00 0.00 0.00 97 1014.1
20260509121548 54 0 0.0 0.0 0.00 0.00 0.00 97 1013.8
20260509120041 52 0 0.0 0.0 0.00 0.00 0.00 97 1013.7
20260509114537 50 0 0.0 0.0 0.00 0.00 0.00 97 1014.3
20260509113038 49 0 0.0 0.0 0.00 0.00 0.00 97 1014.3
20260509111537 48 0 0.0 0.0 0.00 0.00 0.00 96 1013.7
20260509110039 48 0 0.0 0.0 0.00 0.00 0.00 96 1013.8
20260509104551 48 0 0.0 0.0 0.00 0.00 0.00 96 1013.5
20260509103038 48 0 0.0 0.0 0.00 0.00 0.00 95 1013.1
20260509101541 49 0 0.0 0.0 0.00 0.00 0.00 95 1013.0
20260509100038 49 0 0.0 0.0 0.00 0.00 0.00 95 1013.1
20260509094537 50 0 0.0 0.0 0.00 0.00 0.00 95 1013.1
20260509093042 50 0 0.0 0.0 0.00 0.00 0.00 95 1013.1
20260509091541 50 0 0.0 0.0 0.00 0.00 0.00 95 1013.0
20260509090047 51 0 0.0 0.0 0.00 0.00 0.00 95 1013.2
20260509084540 51 0 0.0 0.0 0.00 0.00 0.00 95 1013.3
20260509083044 51 0 0.0 0.0 0.00 0.00 0.00 94 1013.5
20260509081543 51 0 0.0 0.0 0.00 0.00 0.00 93 1013.8
20260509080042 51 0 0.0 0.0 0.00 0.00 0.00 93 1013.9
20260509074548 51 0 0.0 0.0 0.00 0.00 0.00 93 1013.7
20260509073038 51 0 0.0 0.0 0.00 0.00 0.00 91 1013.8
20260509071540 51 0 0.0 0.0 0.00 0.00 0.00 91 1013.7
20260509070046 51 0 0.0 0.0 0.00 0.00 0.00 90 1013.8
20260509064541 52 0 0.0 0.0 0.00 0.00 0.00 89 1013.9
20260509063041 52 0 0.0 0.0 0.00 0.00 0.00 89 1014.1
20260509061539 52 0 0.0 0.0 0.00 0.00 0.00 89 1014.3
20260509060038 52 0 0.0 0.0 0.00 0.00 0.00 88 1014.7
20260509054545 52 0 0.0 0.0 0.00 0.00 0.00 86 1014.9
20260509053124 53 0 0.0 0.0 0.00 0.00 0.00 86 1015.1
20260509051547 53 0 0.0 0.0 0.00 0.00 0.00 87 1015.1
20260509050045 53 0 0.0 0.0 0.00 0.00 0.00 86 1015.3
20260509044537 53 0 0.0 0.0 0.00 0.00 0.00 87 1015.4
20260509043042 52 0 0.0 0.0 0.00 0.00 0.00 87 1015.1
20260509041542 52 0 0.0 0.0 0.00 0.00 0.00 89 1015.2
20260509040046 53 0 0.0 0.0 0.00 0.00 0.00 90 1015.1
20260509034540 52 0 0.0 0.0 0.00 0.00 0.00 88 1015.1
20260509033037 52 0 0.0 0.0 0.00 0.00 0.00 89 1015.1
20260509031538 53 0 0.0 0.0 0.00 0.00 0.00 90 1015.3
20260509030042 53 0 0.0 0.0 0.00 0.00 0.00 89 1015.4
20260509024543 53 0 0.0 0.0 0.00 0.00 0.00 88 1015.5
20260509023047 53 0 0.0 0.0 0.00 0.00 0.00 88 1015.6
20260509021537 54 0 0.0 0.0 0.00 0.00 0.00 87 1015.6
20260509020044 54 0 0.0 0.0 0.00 0.00 0.00 87 1015.7
20260509014539 54 0 0.0 0.0 0.00 0.00 0.00 86 1015.4
20260509013102 55 0 0.0 0.0 0.00 0.00 0.00 84 1015.5
20260509011546 56 0 0.0 0.0 0.00 0.00 0.00 83 1015.3
20260509010037 57 0 0.0 0.0 0.00 0.00 0.00 82 1015.3
20260509004542 58 0 0.0 0.0 0.00 0.00 0.00 76 1015.0
20260509003055 59 0 0.0 0.0 0.00 0.00 0.00 72 1014.7
20260509001537 60 0 0.0 0.0 0.00 0.00 0.00 69 1014.6
20260509000047 61 0 0.0 0.0 0.00 0.00 0.00 65 1014.7
20260508234543 62 0 0.0 0.0 0.00 0.00 0.00 62 1014.7
20260508233037 63 0 0.0 0.0 0.00 0.00 0.00 60 1014.5
20260508231541 64 0 0.0 0.0 0.00 0.00 0.00 58 1014.5
20260508230037 64 0 0.0 0.0 0.00 0.00 0.00 56 1014.4
20260508224542 65 0 0.0 0.0 0.00 0.01 0.00 54 1014.4
20260508223043 66 0 0.0 0.0 0.00 0.01 0.00 54 1014.4
20260508221542 66 0 0.0 0.0 0.00 0.01 0.00 55 1014.3
20260508220037 67 0 0.0 0.0 0.00 0.01 0.00 56 1014.3
20260508214536 67 0 0.0 1.0 0.00 0.01 0.00 57 1014.2
20260508213037 67 0 0.0 1.0 0.00 0.01 0.00 53 1014.3
20260508211535 68 0 0.0 1.0 0.00 0.01 0.00 57 1014.4
20260508210036 69 0 0.0 2.0 0.00 0.01 0.00 59 1014.4
20260508204538 69 0 0.0 2.0 0.00 0.01 0.00 47 1014.6
20260508203046 70 0 1.0 2.0 0.00 0.01 0.00 49 1015.0
20260508201537 71 0 0.0 2.0 0.00 0.01 0.00 42 1014.9
20260508200038 72 232 0.0 1.0 0.00 0.01 0.00 47 1015.1
20260508194543 72 0 0.0 3.0 0.00 0.01 0.00 41 1015.4
20260508193043 71 327 0.0 2.0 0.00 0.01 0.00 37 1015.8
20260508191543 71 0 0.0 2.0 0.00 0.01 0.00 38 1015.6
20260508190043 71 0 0.0 3.0 0.00 0.01 0.00 40 1015.9
20260508184542 71 264 0.0 2.0 0.00 0.02 0.00 43 1016.1
20260508183041 71 0 0.0 2.0 0.00 0.02 0.00 44 1016.3
20260508181538 71 243 0.0 4.0 0.00 0.02 0.00 42 1016.4
20260508180039 72 0 0.0 2.0 0.00 0.02 0.00 39 1016.6
20260508174557 70 0 1.0 2.0 0.00 0.07 0.00 43 1016.8
20260508173036 70 233 1.0 3.0 0.00 0.07 0.00 48 1016.9
20260508171536 71 40 1.0 5.0 0.00 0.07 0.00 40 1016.9
20260508170043 69 0 0.0 5.0 0.00 0.07 0.00 48 1017.1
20260508164545 69 77 0.0 3.0 0.00 0.09 0.00 44 1017.5
20260508163107 70 49 0.0 2.0 0.00 0.09 0.00 49 1017.7
20260508161538 68 0 0.0 5.0 0.00 0.09 0.00 45 1017.9
20260508160037 66 0 0.0 4.0 0.00 0.09 0.00 54 1018.0
20260508154537 66 0 0.0 3.0 0.00 0.12 0.00 47 1018.2
20260508153043 65 320 0.0 6.0 0.00 0.12 0.00 51 1018.4
20260508151542 63 46 0.0 2.0 0.00 0.12 0.00 58 1018.4
20260508150037 61 0 0.0 3.0 0.00 0.12 0.00 60 1018.4
20260508144539 59 281 0.0 2.0 0.00 0.17 0.00 70 1018.3
20260508143048 58 0 0.0 4.0 0.00 0.17 0.00 72 1018.3
20260508141543 57 0 0.0 3.0 0.00 0.17 0.00 74 1018.2
20260508140041 54 267 0.0 1.0 0.00 0.17 0.00 88 1018.1